Location: ?
(35.4064°N, 139.3593°E)
Time: 11:11:11
(UTC+00:00)

Cosmos 2266 Rocket - Pass Details

Date: 18 April 2024
Orbit: 934 x 1007 km, 82.9° (Epoch: 18 May)

Event Time Altitude Azimuth Distance (km) Brightness Sun altitude
Exits shadow 18:56:40 11° 207° (SSW) 2,567 5.7 -14.0°
Maximum altitude 19:02:13 47° 280° (W) 1,222 4.2 -12.9°
Drops below altitude 10° 19:08:01 10° 354° (N) 2,651 6.5 -11.9°
Sets 19:10:37 0° 360° (N) 3,597 7.3 -11.4°
